Погода в Озерном

Россия / Республика Мордовия     54°13′54″N   45°17′11″E
темп.,
°C
ветер,
м/с
пор.,
м/с
влажн.,
%
обл.,
%
осадки,
мм/ч
давл.,
гПа
погр.,
м
4 августа, ср
ср400:00+19зюз269169 2.8 1011139
03:00+17зсз2495100 2.8 1011100
06:00+18зюз2596100 3.1 1013194
09:00+18ююз2393100 7.2 1014162
12:00+21сз457213 0.3 1014689
15:00+24ссз455290 0.6 10131679
18:00+23ссз245877 0.1 1013117
21:00+20сз235677 0.1 101556
5 августа, чт
чт500:00+17сз236078 0.0 101552
03:00+18сз355539 0.0 101694
06:00+16сз2464100 0.0 1017141
09:00+21ссз34505 0.0 1017563
12:00+24ссз23388 0.0 10172135
15:00+25ссз343545 0.0 10172467
18:00+22всв235346 0.0 1017109
21:00+18вюв115813 0.0 101811
6 августа, пт
пт600:00+16ю1161100 0.0 101811
03:00+15юв226068 0.0 101711
06:00+16ю236278 0.0 101876
09:00+22ю354635 0.0 1018509
12:00+25ю453867 0.0 10171626
15:00+26ю443619 0.0 10161937
18:00+24юв354998 0.0 1016114
21:00+20юв345594 0.0 101650
7 августа, сб
сб700:00+18юв36579 0.0 101699
03:00+17ююв34576 0.0 101661
06:00+17ююв295953 0.0 1016225
09:00+24ю584214 0.0 1016470
12:00+28ююз4533100 0.0 10161218
15:00+28ююв3432100 0.0 10161442
18:00+25юв3349100 0.0 101662
21:00+21вюв22540 0.0 101619
8 августа, вс
вс800:00+19вюв335458 0.0 101632
03:00+18вюв225654 0.0 101618
06:00+19вюв2358100 0.0 101653
09:00+25юв464389 0.0 1015335
12:00+30ююв453292 0.0 1015976
15:00+32ююв4527100 0.0 10142209
18:00+28вюв3444100 0.0 101476
21:00+24ююв2348100 0.0 101448